Location: Bothwell
(42.3833°S, 147.0000°E)
Time: 11:12:53
(UTC+11:00)

NANOSAT C BR1 - Pass Details

Date: 02 December 2023
Orbit: 557 x 573 km, 98.1° (Epoch: 27 February)

Event Time Altitude Azimuth Distance (km) Brightness Sun altitude
Exits shadow 02:29:53 - 61° (ENE) 2,481 ? -22.6°
Reaches altitude 10° 02:31:46 10° 76° (ENE) 1,909 ? -22.5°
Maximum altitude 02:34:23 17° 116° (ESE) 1,535 ? -22.3°
Drops below altitude 10° 02:37:03 10° 156° (SSE) 1,934 ? -22.1°
Sets 02:39:52 0° 176° (S) 2,847 ? -21.9°
